TimeCDT,TemperatureF,Dew PointF,Humidity,Sea Level PressureIn,VisibilityMPH,Wind Direction,Wind SpeedMPH,Gust SpeedMPH,PrecipitationIn,Events,Conditions,WindDirDegrees,DateUTC
12:15 AM,76.6,62.2,61,30.04,10.0,Calm,Calm,-,N/A,,Clear,0,2013-08-30 05:15:00
12:35 AM,75.4,62.6,64,30.04,10.0,Calm,Calm,-,N/A,,Clear,0,2013-08-30 05:35:00
12:55 AM,75.6,62.6,64,30.04,10.0,Calm,Calm,-,N/A,,Clear,0,2013-08-30 05:55:00
1:15 AM,73.9,63.0,68,30.05,10.0,West,3.5,-,N/A,,Clear,280,2013-08-30 06:15:00
1:35 AM,75.7,63.7,66,30.05,10.0,North,3.5,-,N/A,,Clear,360,2013-08-30 06:35:00
1:55 AM,75.2,63.9,68,30.05,10.0,North,3.5,-,N/A,,Clear,10,2013-08-30 06:55:00
2:15 AM,74.7,64.4,70,30.04,10.0,NW,5.8,-,N/A,,Clear,320,2013-08-30 07:15:00
2:35 AM,73.4,64.4,73,30.04,10.0,Calm,Calm,-,N/A,,Clear,0,2013-08-30 07:35:00
2:55 AM,72.1,64.6,77,30.04,10.0,Calm,Calm,-,N/A,,Clear,0,2013-08-30 07:55:00
3:15 AM,72.9,65.3,77,30.04,10.0,Calm,Calm,-,N/A,,Clear,0,2013-08-30 08:15:00
3:35 AM,73.8,65.5,75,30.04,10.0,North,3.5,-,N/A,,Clear,10,2013-08-30 08:35:00
3:55 AM,71.1,65.1,81,30.04,5.0,Calm,Calm,-,N/A,,Haze,0,2013-08-30 08:55:00
4:15 AM,72.9,65.7,78,30.04,10.0,Calm,Calm,-,N/A,,Clear,0,2013-08-30 09:15:00
4:35 AM,72.3,65.8,80,30.04,10.0,North,3.5,-,N/A,,Clear,350,2013-08-30 09:35:00
4:55 AM,72.5,65.8,80,30.04,10.0,North,3.5,-,N/A,,Clear,10,2013-08-30 09:55:00
5:15 AM,72.0,65.8,81,30.04,10.0,North,4.6,-,N/A,,Clear,360,2013-08-30 10:15:00
5:35 AM,71.8,65.5,80,30.05,10.0,North,5.8,-,N/A,,Clear,350,2013-08-30 10:35:00
5:55 AM,69.1,64.8,86,30.05,10.0,NNW,5.8,-,N/A,,Clear,330,2013-08-30 10:55:00
6:15 AM,70.2,65.3,85,30.05,10.0,North,5.8,-,N/A,,Clear,360,2013-08-30 11:15:00
6:35 AM,67.5,63.7,88,30.06,10.0,NNW,4.6,-,N/A,,Clear,340,2013-08-30 11:35:00
6:55 AM,68.5,65.1,89,30.07,10.0,North,8.1,-,N/A,,Clear,350,2013-08-30 11:55:00
7:15 AM,68.4,64.6,88,30.07,10.0,North,4.6,-,N/A,,Clear,350,2013-08-30 12:15:00
7:35 AM,69.4,65.3,87,30.08,10.0,North,4.6,-,N/A,,Clear,360,2013-08-30 12:35:00
7:55 AM,69.8,65.3,86,30.08,10.0,North,3.5,-,N/A,,Clear,360,2013-08-30 12:55:00
9:15 AM,76.3,68.0,75,30.09,10.0,NE,5.8,-,N/A,,Clear,50,2013-08-30 14:15:00
9:35 AM,77.9,68.2,72,30.09,10.0,NE,5.8,-,N/A,,Clear,40,2013-08-30 14:35:00
9:55 AM,80.1,68.4,67,30.09,10.0,East,5.8,-,N/A,,Clear,80,2013-08-30 14:55:00
10:15 AM,81.3,67.8,63,30.08,10.0,East,9.2,-,N/A,,Clear,80,2013-08-30 15:15:00
10:35 AM,82.8,67.6,60,30.08,10.0,ENE,9.2,-,N/A,,Clear,70,2013-08-30 15:35:00
10:55 AM,83.7,66.7,57,30.08,10.0,NE,8.1,-,N/A,,Clear,50,2013-08-30 15:55:00
11:15 AM,84.6,66.4,54,30.08,10.0,NE,6.9,-,N/A,,Clear,40,2013-08-30 16:15:00
11:35 AM,85.6,65.3,50,30.09,10.0,ENE,5.8,-,N/A,,Clear,60,2013-08-30 16:35:00
11:55 AM,86.9,64.9,48,30.09,10.0,NE,9.2,-,N/A,,Clear,40,2013-08-30 16:55:00
12:15 PM,88.0,64.4,45,30.09,10.0,NE,4.6,-,N/A,,Clear,40,2013-08-30 17:15:00
12:35 PM,88.3,63.1,43,30.08,10.0,North,3.5,-,N/A,,Clear,350,2013-08-30 17:35:00
12:55 PM,90.1,63.5,41,30.08,10.0,ENE,6.9,-,N/A,,Clear,70,2013-08-30 17:55:00
1:15 PM,90.5,61.5,38,30.07,10.0,NE,9.2,-,N/A,,Clear,50,2013-08-30 18:15:00
1:35 PM,90.9,60.1,35,30.05,10.0,East,6.9,-,N/A,,Clear,80,2013-08-30 18:35:00
1:55 PM,91.0,59.0,34,30.05,10.0,ENE,6.9,-,N/A,,Clear,70,2013-08-30 18:55:00
2:15 PM,91.9,59.2,33,30.05,10.0,ENE,4.6,-,N/A,,Clear,70,2013-08-30 19:15:00
2:35 PM,92.3,59.7,33,30.05,10.0,East,8.1,-,N/A,,Clear,100,2013-08-30 19:35:00
2:55 PM,92.5,58.8,32,30.04,10.0,NE,6.9,-,N/A,,Clear,50,2013-08-30 19:55:00
3:15 PM,93.4,60.8,34,30.03,10.0,East,6.9,-,N/A,,Clear,90,2013-08-30 20:15:00
3:35 PM,93.6,58.3,31,30.03,10.0,ENE,5.8,-,N/A,,Clear,60,2013-08-30 20:35:00
3:55 PM,92.8,57.7,31,30.02,10.0,ENE,5.8,9.2,N/A,,Clear,70,2013-08-30 20:55:00
4:15 PM,93.9,57.4,29,30.01,10.0,ENE,8.1,-,N/A,,Clear,60,2013-08-30 21:15:00
4:35 PM,93.2,57.0,30,30.01,10.0,NE,5.8,-,N/A,,Clear,40,2013-08-30 21:35:00
4:55 PM,93.7,56.7,29,30.00,10.0,ESE,6.9,17.3,N/A,,Clear,120,2013-08-30 21:55:00
5:15 PM,93.7,56.5,28,30.00,10.0,East,6.9,-,N/A,,Clear,90,2013-08-30 22:15:00
5:35 PM,93.0,56.8,30,29.99,10.0,East,9.2,-,N/A,,Clear,90,2013-08-30 22:35:00
5:55 PM,92.7,56.8,30,29.98,10.0,East,10.4,-,N/A,,Clear,90,2013-08-30 22:55:00
6:15 PM,92.3,56.8,30,29.97,10.0,ESE,6.9,-,N/A,,Clear,110,2013-08-30 23:15:00
6:35 PM,91.4,55.4,29,29.97,10.0,East,9.2,16.1,N/A,,Clear,100,2013-08-30 23:35:00
6:55 PM,88.3,55.4,32,29.98,10.0,ESE,8.1,-,N/A,,Clear,110,2013-08-30 23:55:00
7:15 PM,86.7,57.2,37,29.99,10.0,East,5.8,-,N/A,,Clear,100,2013-08-31 00:15:00
7:35 PM,85.3,58.1,40,29.98,10.0,ESE,5.8,-,N/A,,Clear,110,2013-08-31 00:35:00
7:55 PM,83.5,58.1,42,29.96,10.0,ESE,5.8,-,N/A,,Clear,120,2013-08-31 00:55:00
8:15 PM,82.8,58.3,43,29.98,10.0,East,6.9,-,N/A,Thunderstorm,Clear,100,2013-08-31 01:15:00
8:35 PM,82.8,58.6,44,29.97,10.0,ESE,5.8,-,N/A,,Clear,120,2013-08-31 01:35:00
8:55 PM,82.2,59.4,46,29.98,10.0,East,6.9,-,N/A,,Clear,80,2013-08-31 01:55:00
9:15 PM,78.8,62.8,58,30.06,10.0,WNW,10.4,-,N/A,Rain-Thunderstorm,Rain,290,2013-08-31 02:15:00
9:35 PM,68.4,64.8,88,30.12,1.0,WSW,51.8,63.3,0.43,Rain-Thunderstorm,Heavy Thunderstorms and Rain,240,2013-08-31 02:35:00
9:55 PM,67.1,63.1,87,30.14,2.5,SW,24.2,40.3,0.80,Rain-Thunderstorm,Heavy Thunderstorms and Rain,230,2013-08-31 02:55:00
10:15 PM,69.4,61.7,76,30.14,10.0,South,17.3,-,0.02,Rain-Thunderstorm,Light Thunderstorms and Rain,190,2013-08-31 03:15:00
10:35 PM,68.4,64.4,87,30.19,10.0,WNW,11.5,19.6,0.03,Rain-Thunderstorm,Thunderstorms and Rain,300,2013-08-31 03:35:00
10:55 PM,68.4,65.3,90,30.14,7.0,North,11.5,16.1,0.08,Rain-Thunderstorm,Rain,10,2013-08-31 03:55:00
11:15 PM,69.3,64.6,85,30.12,10.0,ENE,8.1,-,0.01,Rain-Thunderstorm,Light Thunderstorms and Rain,70,2013-08-31 04:15:00
11:35 PM,68.9,63.5,83,30.10,10.0,East,6.9,-,0.01,Rain,Light Rain,90,2013-08-31 04:35:00
11:55 PM,68.5,62.4,81,30.08,10.0,East,9.2,-,0.01,,Scattered Clouds,100,2013-08-31 04:55:00